W5WDV Weather Reports


time (UTC)temp
F
wind
direction
speed
knots
gust
knots
rain 1hr
in
rain 24hr
in
rain mn
in
humidity
%
barometer
mb
20260510164003 82 155 3.5 10.4 0.00 0.00 0.00 33 1013.2
20260510163504 82 171 3.5 10.4 0.00 0.00 0.00 37 1013.2
20260510163008 81 131 3.5 7.8 0.00 0.00 0.00 37 1013.3
20260510162503 81 173 2.6 12.2 0.00 0.00 0.00 30 1013.2
20260510162003 81 165 4.3 12.2 0.00 0.00 0.00 20 1013.1
20260510161004 80 128 1.7 8.7 0.00 0.00 0.00 17 1013.0
20260510160503 80 121 4.3 8.7 0.00 0.00 0.00 17 1013.0
20260510160004 80 107 4.3 10.4 0.00 0.00 0.00 17 1013.0
20260510155502 80 166 1.7 10.4 0.00 0.00 0.00 17 1013.0
20260510154003 79 174 2.6 6.1 0.00 0.00 0.00 17 1012.8
20260510153503 79 119 0.9 6.1 0.00 0.00 0.00 17 1012.8
20260510153004 79 152 1.7 6.1 0.00 0.00 0.00 17 1012.8
20260510152503 78 124 1.7 6.1 0.00 0.00 0.00 17 1012.8
20260510152004 78 156 0.9 6.1 0.00 0.00 0.00 17 1012.6
20260510151503 78 120 1.7 6.1 0.00 0.00 0.00 17 1012.6
20260510151004 77 168 0.9 7.0 0.00 0.00 0.00 17 1012.5
20260510150503 77 145 2.6 7.0 0.00 0.00 0.00 17 1012.5
20260510145507 76 189 1.7 6.1 0.00 0.00 0.00 17 1012.4
20260510145003 76 137 1.7 6.1 0.00 0.00 0.00 17 1012.4
20260510144504 75 206 0.9 7.0 0.00 0.00 0.00 17 1012.4
20260510143503 75 141 2.6 6.1 0.00 0.00 0.00 17 1012.3
20260510143004 75 164 1.7 6.1 0.00 0.00 0.00 17 1012.2
20260510142004 74 183 1.7 2.6 0.00 0.00 0.00 17 1012.3
20260510141004 74 203 0.9 4.3 0.00 0.00 0.00 17 1012.0
20260510140506 74 191 0.9 4.3 0.00 0.00 0.00 17 1012.0
20260510140003 73 209 1.7 4.3 0.00 0.00 0.00 17 1011.9
20260510135503 73 180 0.9 4.3 0.00 0.00 0.00 17 1011.8
20260510135005 73 204 0.9 4.3 0.00 0.00 0.00 17 1011.7
20260510134503 73 230 0.9 2.6 0.00 0.00 0.00 17 1011.6
20260510134004 72 177 0.0 2.6 0.00 0.00 0.00 17 1011.7
20260510133503 72 221 0.9 2.6 0.00 0.00 0.00 17 1011.6
20260510133006 72 264 0.0 1.7 0.00 0.00 0.00 17 1011.5
20260510132503 71 211 0.0 2.6 0.00 0.00 0.00 17 1011.3
20260510131503 71 211 0.9 1.7 0.00 0.00 0.00 17 1011.3
20260510131004 70 211 0.0 0.9 0.00 0.00 0.00 17 1011.3
20260510125506 69 207 0.0 0.0 0.00 0.00 0.00 17 1011.0
20260510125005 69 207 0.0 0.0 0.00 0.00 0.00 17 1010.9
20260510124006 68 207 0.0 0.0 0.00 0.00 0.00 17 1010.8
20260510123503 68 207 0.0 0.0 0.00 0.00 0.00 17 1010.8
20260510122004 68 207 0.0 0.0 0.00 0.00 0.00 17 1010.6
20260510121504 68 208 0.0 0.0 0.00 0.00 0.00 17 1010.6
20260510121004 68 207 0.0 0.0 0.00 0.00 0.00 17 1010.6
20260510120504 68 207 0.0 0.0 0.00 0.00 0.00 17 1010.6
20260510115504 68 207 0.0 0.0 0.00 0.00 0.00 17 1010.5
20260510115004 68 207 0.0 0.0 0.00 0.00 0.00 17 1010.5
20260510114005 68 207 0.0 0.0 0.00 0.00 0.00 17 1010.5
20260510113504 68 207 0.0 0.0 0.00 0.00 0.00 17 1010.5
20260510113004 68 207 0.0 0.0 0.00 0.00 0.00 17 1010.4
20260510112503 69 207 0.0 0.0 0.00 0.00 0.00 17 1010.4
20260510112004 69 207 0.0 0.0 0.00 0.00 0.00 17 1010.4
20260510111503 69 207 0.0 0.0 0.00 0.00 0.00 17 1010.4
20260510111007 69 207 0.0 0.0 0.00 0.00 0.00 17 1010.4
20260510110505 69 207 0.0 0.0 0.00 0.00 0.00 17 1010.5
20260510110004 69 207 0.0 0.0 0.00 0.00 0.00 17 1010.5
20260510105503 69 207 0.0 0.0 0.00 0.00 0.00 17 1010.5
20260510105004 69 207 0.0 0.0 0.00 0.00 0.00 17 1010.5
20260510104003 69 207 0.0 0.0 0.00 0.00 0.00 17 1010.6
20260510103504 69 207 0.0 0.0 0.00 0.00 0.00 17 1010.6
20260510103005 69 207 0.0 0.0 0.00 0.00 0.00 17 1010.5
20260510102004 69 207 0.0 0.0 0.00 0.00 0.00 17 1010.7
20260510101503 69 207 0.0 0.0 0.00 0.00 0.00 17 1010.7
20260510100503 70 207 0.0 0.0 0.00 0.01 0.00 17 1010.8
20260510095504 70 207 0.0 0.0 0.00 0.01 0.00 17 1010.8
20260510095004 70 207 0.0 0.0 0.00 0.01 0.00 17 1010.8
20260510094507 70 207 0.0 0.0 0.00 0.01 0.00 17 1010.8
20260510093504 71 207 0.0 0.0 0.00 0.01 0.00 17 1010.4
20260510093005 71 207 0.0 0.0 0.00 0.01 0.00 17 1010.4
20260510092504 71 207 0.0 0.0 0.00 0.01 0.00 17 1010.4
20260510092006 71 207 0.0 0.0 0.00 0.01 0.00 17 1010.3
20260510091503 71 207 0.0 0.0 0.00 0.01 0.00 17 1010.4
20260510085504 71 207 0.0 0.0 0.00 0.01 0.00 17 1010.3
20260510085004 71 207 0.0 0.0 0.00 0.01 0.00 17 1010.3
20260510084504 72 207 0.0 0.0 0.00 0.01 0.00 17 1010.3
20260510084004 72 207 0.0 0.0 0.00 0.01 0.00 17 1010.3
20260510083504 72 207 0.0 0.0 0.00 0.01 0.00 17 1010.3
20260510083004 72 207 0.0 0.0 0.00 0.01 0.00 17 1010.3
20260510082503 72 207 0.0 0.0 0.00 0.01 0.00 17 1010.3
20260510082006 72 207 0.0 0.0 0.00 0.01 0.00 17 1010.3
20260510081503 72 207 0.0 0.0 0.00 0.01 0.00 17 1010.3
20260510080004 73 207 0.0 0.0 0.00 0.01 0.00 28 1010.3
20260510075505 73 207 0.0 0.0 0.00 0.01 0.00 29 1010.2
20260510074504 74 207 0.0 0.0 0.00 0.01 0.00 29 1010.3
20260510073503 74 207 0.0 0.0 0.00 0.01 0.00 31 1010.1
20260510073004 74 207 0.0 0.0 0.00 0.01 0.00 32 1010.2
20260510072507 74 207 0.0 0.0 0.00 0.01 0.00 33 1010.2
20260510072006 74 207 0.0 0.9 0.00 0.01 0.00 32 1010.2
20260510071503 74 207 0.0 0.9 0.00 0.01 0.00 29 1010.2
20260510071004 74 207 0.0 0.9 0.00 0.01 0.00 26 1010.2
20260510070504 74 205 0.0 2.6 0.00 0.01 0.00 19 1010.2
20260510070007 74 205 0.0 2.6 0.00 0.01 0.00 17 1010.2
20260510065505 74 219 0.0 0.0 0.00 0.01 0.00 17 1010.1
20260510065004 74 219 0.0 0.9 0.00 0.01 0.00 17 1010.1
20260510064504 74 215 0.0 2.6 0.00 0.01 0.00 17 1010.1
20260510064005 75 210 0.9 2.6 0.00 0.01 0.00 17 1010.1
20260510063504 75 204 0.0 0.0 0.00 0.01 0.00 17 1010.1
20260510062004 75 204 0.0 0.0 0.00 0.01 0.00 17 1010.2
20260510061504 75 204 0.0 0.0 0.00 0.01 0.00 17 1010.2
20260510061006 75 204 0.0 0.0 0.00 0.01 0.00 17 1010.2
20260510060504 75 204 0.0 0.0 0.00 0.01 0.00 17 1010.2
20260510055954 76 204 0.0 0.0 0.00 0.01 0.00 17 1010.1
20260510054955 76 204 0.0 0.0 0.00 0.01 0.00 17 1010.1
20260510053954 76 204 0.0 0.0 0.00 0.01 0.00 17 1010.2
20260510053454 76 204 0.0 0.0 0.00 0.01 0.00 17 1010.2
20260510052954 76 204 0.0 0.0 0.00 0.01 0.00 17 1010.2
20260510052454 76 204 0.0 0.0 0.00 0.01 0.00 17 1010.1
20260510051454 77 204 0.0 0.0 0.00 0.01 0.00 17 1010.0
20260510051000 77 204 0.0 0.0 0.00 0.01 0.00 17 1009.9
20260510045958 77 204 0.0 0.0 0.00 0.01 0.00 20 1009.7
20260510045453 77 204 0.0 0.0 0.00 0.01 0.01 22 1009.8
20260510044954 77 204 0.0 0.0 0.00 0.01 0.01 27 1009.7
20260510044453 77 204 0.0 1.7 0.00 0.01 0.01 31 1009.6
20260510043954 77 204 0.0 1.7 0.00 0.01 0.01 32 1009.6
20260510043456 78 204 0.0 2.6 0.00 0.01 0.01 35 1009.6
20260510042955 78 204 0.0 2.6 0.00 0.01 0.01 36 1009.7
20260510042453 78 187 0.0 2.6 0.00 0.01 0.01 39 1009.6
20260510041954 78 175 0.0 2.6 0.00 0.01 0.01 42 1009.7
20260510041453 78 175 0.9 2.6 0.00 0.01 0.01 45 1009.7
20260510040954 78 178 0.9 2.6 0.00 0.01 0.01 47 1009.7
20260510040454 78 175 0.9 2.6 0.00 0.01 0.01 48 1009.7
20260510035454 78 189 0.9 4.3 0.00 0.01 0.01 46 1009.5
20260510034953 78 213 0.0 0.0 0.00 0.01 0.01 45 1009.4
20260510034454 78 213 0.0 0.0 0.00 0.01 0.01 49 1009.3
20260510033954 79 213 0.0 0.0 0.00 0.01 0.01 50 1009.3
20260510033454 79 213 0.0 0.0 0.00 0.01 0.01 52 1009.3
20260510032955 79 213 0.0 0.0 0.00 0.01 0.01 55 1009.3
20260510031955 80 213 0.0 0.0 0.00 0.01 0.01 58 1009.1
20260510031453 80 213 0.0 2.6 0.00 0.01 0.01 59 1009.0
20260510030954 80 213 0.0 2.6 0.00 0.01 0.01 59 1009.0
20260510030453 80 173 0.0 2.6 0.00 0.01 0.01 59 1009.0
20260510025956 80 163 0.0 0.0 0.00 0.01 0.01 60 1008.8
20260510025454 80 163 0.0 0.0 0.00 0.01 0.01 61 1008.8
20260510023954 81 163 0.0 0.0 0.00 0.01 0.01 63 1008.6
20260510023453 81 162 0.0 0.0 0.00 0.01 0.01 64 1008.6
20260510022954 81 163 0.0 0.0 0.00 0.01 0.01 65 1008.6
20260510022456 81 163 0.0 0.0 0.00 0.01 0.01 66 1008.5
20260510021954 82 162 0.0 0.0 0.00 0.01 0.01 66 1008.6
20260510021453 82 162 0.0 0.0 0.00 0.01 0.01 67 1008.5
20260510020956 82 162 0.0 0.0 0.00 0.01 0.01 67 1008.4
20260510020455 82 162 0.0 0.0 0.00 0.01 0.01 68 1008.3
20260510015953 82 163 0.0 0.0 0.00 0.01 0.01 68 1008.3
20260510014957 82 162 0.0 2.6 0.00 0.01 0.01 68 1008.2
20260510014455 83 162 0.9 2.6 0.00 0.01 0.01 69 1008.2
20260510013954 83 166 0.9 4.3 0.00 0.01 0.01 69 1008.1
20260510013454 83 172 1.7 4.3 0.00 0.01 0.01 69 1007.9
20260510012954 83 161 0.9 4.3 0.00 0.01 0.01 69 1007.9
20260510012453 83 159 1.7 4.3 0.00 0.01 0.01 69 1007.9
20260510011955 84 164 1.7 4.3 0.00 0.01 0.01 69 1007.8
20260510011454 84 167 1.7 5.2 0.00 0.01 0.01 69 1007.7
20260510010954 84 177 1.7 6.1 0.00 0.01 0.01 68 1007.7
20260510010454 84 166 1.7 6.1 0.00 0.01 0.01 68 1007.6
20260510005454 85 174 1.7 6.1 0.00 0.01 0.01 67 1007.6
20260510004954 85 160 2.6 6.1 0.00 0.01 0.01 67 1007.5
20260510004455 85 156 2.6 6.1 0.00 0.01 0.01 67 1007.5
20260510003954 86 167 1.7 7.8 0.00 0.01 0.01 66 1007.5
20260510003455 86 170 2.6 7.8 0.00 0.01 0.01 67 1007.4
20260510002954 86 147 2.6 10.4 0.00 0.01 0.01 67 1007.3
20260510002454 86 183 3.5 10.4 0.00 0.01 0.01 67 1007.2
20260510001954 86 193 3.5 10.4 0.00 0.01 0.01 67 1007.2
20260510000954 86 154 2.6 6.1 0.00 0.01 0.01 67 1007.1
20260510000455 85 148 0.9 4.3 0.00 0.01 0.01 68 1007.0
20260509235956 85 104 0.0 0.0 0.00 0.01 0.01 67 1006.9
20260509235454 85 104 0.0 4.3 0.00 0.01 0.01 67 1006.8
20260509234955 85 106 0.0 7.0 0.00 0.01 0.01 67 1006.9
20260509234454 86 60 2.6 7.0 0.00 0.01 0.01 68 1006.7
20260509233954 87 85 1.7 2.6 0.00 0.01 0.01 68 1006.7
20260509233455 88 92 0.0 0.0 0.00 0.01 0.01 68 1006.6
20260509232454 89 2 0.0 0.0 0.00 0.01 0.01 68 1006.4
20260509231954 89 0 0.0 0.0 0.00 0.01 0.01 66 1006.5
20260509230454 89 3 0.9 4.3 0.00 0.01 0.01 65 1007.2
20260509225955 90 130 0.9 4.3 0.00 0.01 0.01 64 1007.3
20260509225454 90 162 0.9 4.3 0.00 0.01 0.01 64 1007.0
20260509224955 90 225 0.9 4.3 0.00 0.01 0.01 64 1007.1
20260509224454 90 199 0.9 4.3 0.00 0.01 0.01 63 1007.1
20260509223954 90 191 0.9 2.6 0.00 0.01 0.01 64 1007.0
20260509223455 90 173 1.7 6.1 0.00 0.01 0.01 64 1006.8
20260509222958 90 184 1.7 6.1 0.00 0.01 0.01 64 1006.8
20260509221456 90 217 0.9 7.0 0.00 0.01 0.01 64 1006.9
20260509220954 91 225 2.6 7.0 0.00 0.01 0.01 64 1007.0
20260509215954 91 188 3.5 6.1 0.00 0.01 0.01 63 1006.8
20260509215454 92 216 3.5 6.1 0.00 0.01 0.01 63 1006.9
20260509214453 92 170 2.6 10.4 0.00 0.01 0.01 63 1007.0
20260509213954 92 212 2.6 5.2 0.00 0.01 0.01 61 1007.0
20260509213454 93 213 1.7 5.2 0.00 0.01 0.01 60 1006.9
20260509212454 93 277 1.7 5.2 0.00 0.01 0.01 62 1007.1
20260509211954 92 228 2.6 5.2 0.00 0.01 0.01 62 1007.1
20260509211454 93 146 1.7 7.0 0.00 0.01 0.01 60 1007.2
20260509210456 94 215 2.6 7.0 0.00 0.01 0.01 59 1007.4
20260509205457 94 186 0.9 2.6 0.00 0.01 0.01 62 1007.6
20260509204954 93 295 0.9 2.6 0.00 0.01 0.01 62 1007.6
20260509203954 93 288 1.7 6.1 0.00 0.01 0.01 62 1007.7
20260509203454 93 284 0.9 6.1 0.00 0.01 0.01 61 1007.7
20260509202955 93 207 0.9 2.6 0.00 0.01 0.01 62 1007.9
20260509202455 92 240 0.0 5.2 0.00 0.01 0.01 63 1007.9
20260509201955 92 281 1.7 5.2 0.00 0.01 0.01 63 1007.9
20260509201454 91 211 0.0 4.3 0.00 0.01 0.01 65 1008.0
20260509200954 90 211 0.0 4.3 0.00 0.01 0.01 65 1008.1
20260509200456 90 216 0.9 4.3 0.00 0.01 0.01 65 1008.2
20260509194955 90 207 0.9 2.6 0.00 0.01 0.01 66 1008.6
20260509193956 90 213 0.0 6.1 0.00 0.01 0.01 67 1008.8
20260509193455 91 217 2.6 6.1 0.00 0.01 0.01 64 1008.9
20260509192454 90 294 0.9 2.6 0.00 0.01 0.01 67 1009.0
20260509191955 90 220 0.0 2.6 0.00 0.01 0.01 67 1009.1
20260509191454 90 248 0.9 2.6 0.00 0.01 0.01 65 1009.1
20260509190955 90 319 0.9 2.6 0.00 0.01 0.01 65 1009.2
20260509185954 89 309 0.0 2.6 0.00 0.01 0.01 67 1009.2
20260509185454 89 309 0.9 2.6 0.00 0.01 0.01 67 1009.3
20260509184457 87 311 0.9 2.6 0.00 0.01 0.01 67 1009.4
20260509183455 88 218 0.0 2.6 0.00 0.01 0.01 67 1009.4
20260509182954 88 214 0.0 1.7 0.00 0.01 0.01 67 1009.5
20260509182455 89 188 0.9 5.2 0.00 0.01 0.01 66 1009.6
20260509181954 88 187 1.7 5.2 0.00 0.01 0.01 67 1009.6
20260509181455 88 96 0.0 2.6 0.00 0.01 0.01 66 1009.7
20260509180954 88 70 0.9 2.6 0.00 0.01 0.01 66 1009.7
20260509180855 88 76 0.9 2.6 0.00 0.01 0.01 66 1009.7
20260509180456 88 53 0.9 2.6 0.00 0.01 0.01 66 1009.8
20260509175954 87 312 1.7 2.6 0.00 0.01 0.01 65 1009.9
20260509175454 87 318 0.9 2.6 0.00 0.01 0.01 64 1009.9
20260509174955 87 357 0.9 2.6 0.00 0.01 0.01 65 1009.9
20260509174454 87 317 0.9 2.6 0.00 0.01 0.01 64 1010.0
20260509173454 86 98 0.9 2.6 0.00 0.01 0.01 55 1010.1
20260509172955 85 322 0.9 2.6 0.00 0.01 0.01 54 1010.2
20260509172454 85 316 0.9 1.7 0.00 0.01 0.01 47 1010.2
20260509171957 84 317 0.9 2.6 0.00 0.01 0.01 46 1010.4
20260509170958 83 320 1.7 4.3 0.00 0.01 0.01 28 1010.3
20260509170454 82 336 0.9 2.6 0.00 0.01 0.01 20 1010.3
20260509165955 81 337 0.0 2.6 0.00 0.01 0.01 17 1010.3
20260509165454 81 349 0.9 6.1 0.00 0.01 0.01 17 1010.3